STARLINK-1989 (47585 NORAD) Tracking and Keplerian Element Data

This shows tracking and keplerian element data for the satellite.

Feedback or suggestion? Click here.




ElementValue
Catalog47585
NameSTARLINK-1989
Epoch Orbit182
Epoch Day99.91667824
Epoch Year2021
RAAN167.4922
Inclination53.0527
Eccentricity0.0003384
Argument of Perigee269.7682
Mean Anonmoly159.7155
Mean Motion15.56432408
Decay Rate-0.00494207
L11 47585U 21009AP 21099.91667824 -.00494207 00000-0 -72913-2 0 9997
L22 47585 53.0527 167.4922 0003384 269.7682 159.7155 15.56432408 1824

Live tracking and technical data element details for STARLINK-1989 (NORAD 47585). STARLINK-1989 can be tracked NOW for your location showing map with azimuth and elevation plus other details from your city location.

Track the satellite on the map from your city or location and see movement details for azimuth, elevation, latitude, longitude, range, height, and movement on the map or in text.







IsCatalogInMostPopularTable: catalog: 47585, numindb: 18
Update: records affected: 1



GetName: 47585 STARLINK-1989

Hit Count: updated at: Sat, 10 Apr 2021 19:57:15 GMT